• In Portugal
  • List of Countries
  • For 7 days
  • Water Temperature
  • Satellite Maps
  • Weather Map
  • Weather Widgets
  • user-avatar
    Login

    Hourly Weather Fedoseevka

    Today, 24 September, Monday

    Time Temperature Precipitation Wind Pressure Humidity
    00:00 +8°C° 0 mm 3 mps 743 mmHg 88%
    01:00 +7°C° 0 mm 3 mps 742 mmHg 89%
    02:00 +7°C° 0 mm 2 mps 742 mmHg 92%
    03:00 +7°C° 0 mm 3 mps 742 mmHg 90%
    04:00 +7°C° 0 mm 3 mps 742 mmHg 88%
    05:00 +7°C° 0 mm 3 mps 742 mmHg 86%
    06:00 +7°C° 0 mm 4 mps 742 mmHg 83%
    07:00 +8°C° 0 mm 4 mps 741 mmHg 79%
    08:00 +9°C° 0 mm 5 mps 741 mmHg 76%
    09:00 +9°C° 0.4 mm 6 mps 741 mmHg 77%
    10:00 +9°C° 0.4 mm 6 mps 740 mmHg 77%
    11:00 +9°C° 0.4 mm 7 mps 739 mmHg 78%
    12:00 +9°C° 1.2 mm 8 mps 738 mmHg 80%
    13:00 +9°C° 1.2 mm 8 mps 737 mmHg 82%
    14:00 +8°C° 1.2 mm 9 mps 736 mmHg 84%
    15:00 +10°C° 0.9 mm 9 mps 735 mmHg 85%
    16:00 +10°C° 0.9 mm 9 mps 734 mmHg 86%
    17:00 +10°C° 0.9 mm 9 mps 733 mmHg 87%
    18:00 +10°C° 0.2 mm 9 mps 733 mmHg 87%
    19:00 +10°C° 0.2 mm 8 mps 733 mmHg 86%
    20:00 +10°C° 0.2 mm 8 mps 732 mmHg 86%
    21:00 +9°C° 0 mm 7 mps 733 mmHg 86%
    22:00 +9°C° 0 mm 7 mps 733 mmHg 85%
    23:00 +8°C° 0 mm 7 mps 733 mmHg 85%

    Tomorrow, 25 September, Tuesday

    Time Temperature Precipitation Wind Pressure Humidity
    00:00 +8°C° 0 mm 7 mps 734 mmHg 85%
    01:00 +6°C° 0 mm 7 mps 734 mmHg 85%
    02:00 +7°C° 0 mm 6 mps 734 mmHg 86%
    03:00 +7°C° 0 mm 6 mps 735 mmHg 85%
    04:00 +7°C° 0 mm 6 mps 735 mmHg 85%
    05:00 +7°C° 0 mm 6 mps 735 mmHg 85%
    06:00 +7°C° 0.1 mm 6 mps 735 mmHg 84%
    07:00 +7°C° 0.1 mm 6 mps 736 mmHg 82%
    08:00 +7°C° 0.1 mm 6 mps 737 mmHg 81%
    09:00 +8°C° 0.1 mm 7 mps 737 mmHg 79%
    10:00 +8°C° 0.1 mm 7 mps 738 mmHg 77%
    11:00 +8°C° 0.1 mm 7 mps 738 mmHg 75%
    12:00 +8°C° 0.1 mm 7 mps 739 mmHg 75%
    13:00 +6°C° 0.1 mm 7 mps 740 mmHg 74%
    14:00 +6°C° 0.1 mm 7 mps 740 mmHg 74%
    15:00 +7°C° 0 mm 6 mps 741 mmHg 74%
    16:00 +7°C° 0 mm 6 mps 742 mmHg 74%
    17:00 +7°C° 0 mm 6 mps 742 mmHg 74%
    18:00 +6°C° 0 mm 5 mps 743 mmHg 74%
    19:00 +6°C° 0 mm 5 mps 743 mmHg 74%
    20:00 +6°C° 0 mm 5 mps 744 mmHg 74%
    21:00 +5°C° 0 mm 5 mps 745 mmHg 76%
    22:00 +5°C° 0 mm 4 mps 745 mmHg 77%
    23:00 +4°C° 0 mm 4 mps 745 mmHg 79%

    Day after tomorrow, 26 September, Wednesday

    Time Temperature Precipitation Wind Pressure Humidity
    00:00 +4°C° 0 mm 4 mps 746 mmHg 80%
    01:00 +4°C° 0 mm 4 mps 747 mmHg 80%
    02:00 +3°C° 0 mm 4 mps 747 mmHg 81%
    03:00 +3°C° 0 mm 4 mps 748 mmHg 82%
    04:00 +1°C° 0 mm 4 mps 748 mmHg 84%
    05:00 +1°C° 0 mm 4 mps 749 mmHg 85%
    06:00 +3°C° 0 mm 4 mps 750 mmHg 80%
    07:00 +2°C° 0 mm 5 mps 750 mmHg 74%
    08:00 +3°C° 0 mm 5 mps 751 mmHg 69%
    09:00 +5°C° 0 mm 5 mps 751 mmHg 63%
    10:00 +6°C° 0 mm 5 mps 751 mmHg 57%
    11:00 +7°C° 0 mm 5 mps 752 mmHg 51%
    12:00 +8°C° 0 mm 5 mps 752 mmHg 49%
    13:00 +8°C° 0 mm 5 mps 752 mmHg 47%
    14:00 +10°C° 0 mm 4 mps 751 mmHg 46%
    15:00 +8°C° 0 mm 4 mps 751 mmHg 50%
    16:00 +8°C° 0 mm 3 mps 751 mmHg 55%
    17:00 +7°C° 0 mm 3 mps 751 mmHg 60%
    18:00 +7°C° 0 mm 3 mps 751 mmHg 64%
    19:00 +5°C° 0 mm 3 mps 751 mmHg 67%
    20:00 +5°C° 0 mm 4 mps 750 mmHg 71%
    21:00 +5°C° 0 mm 4 mps 750 mmHg 70%
    22:00 +5°C° 0 mm 5 mps 749 mmHg 70%
    23:00 +6°C° 0 mm 5 mps 749 mmHg 70%

    27 September, Thursday

    Time Temperature Precipitation Wind Pressure Humidity
    00:00 +5°C° 0.1 mm 6 mps 748 mmHg 71%
    01:00 +4°C° 0.1 mm 6 mps 747 mmHg 72%
    02:00 +4°C° 0.1 mm 7 mps 746 mmHg 72%
    03:00 +4°C° 0.6 mm 8 mps 745 mmHg 75%
    04:00 +4°C° 0.6 mm 8 mps 744 mmHg 78%
    05:00 +3°C° 0.6 mm 9 mps 743 mmHg 80%
    06:00 +3°C° 0.9 mm 9 mps 743 mmHg 82%
    07:00 +5°C° 0.9 mm 9 mps 743 mmHg 84%
    08:00 +5°C° 0.9 mm 9 mps 742 mmHg 86%
    09:00 +5°C° 0.5 mm 8 mps 742 mmHg 87%
    10:00 +6°C° 0.5 mm 8 mps 742 mmHg 87%
    11:00 +6°C° 0.5 mm 7 mps 742 mmHg 88%
    12:00 +6°C° 0.5 mm 7 mps 741 mmHg 88%
    13:00 +8°C° 0.5 mm 7 mps 741 mmHg 88%
    14:00 +8°C° 0.5 mm 6 mps 741 mmHg 88%
    15:00 +8°C° 0.1 mm 6 mps 741 mmHg 88%
    16:00 +8°C° 0.1 mm 5 mps 741 mmHg 89%
    17:00 +8°C° 0.1 mm 5 mps 741 mmHg 90%
    18:00 +8°C° 0.1 mm 5 mps 741 mmHg 90%
    19:00 +9°C° 0.1 mm 5 mps 741 mmHg 90%
    20:00 +9°C° 0.1 mm 6 mps 741 mmHg 91%
    21:00 +8°C° 0.1 mm 5 mps 742 mmHg 91%
    22:00 +8°C° 0.1 mm 5 mps 742 mmHg 92%
    23:00 +8°C° 0.1 mm 4 mps 742 mmHg 93%

    28 September, Friday

    Time Temperature Precipitation Wind Pressure Humidity
    00:00 +7°C° 0 mm 4 mps 743 mmHg 94%
    01:00 +7°C° 0 mm 4 mps 743 mmHg 95%
    02:00 +7°C° 0 mm 4 mps 743 mmHg 96%
    03:00 +8°C° 0 mm 3 mps 743 mmHg 96%
    04:00 +8°C° 0 mm 3 mps 743 mmHg 96%
    05:00 +8°C° 0 mm 3 mps 743 mmHg 96%
    06:00 +9°C° 0 mm 3 mps 743 mmHg 93%
    07:00 +8°C° 0 mm 4 mps 743 mmHg 90%
    08:00 +10°C° 0 mm 4 mps 743 mmHg 87%
    09:00 +10°C° 0 mm 6 mps 742 mmHg 86%
    10:00 +11°C° 0 mm 7 mps 742 mmHg 84%
    11:00 +12°C° 0 mm 8 mps 741 mmHg 83%
    12:00 +12°C° 0 mm 8 mps 741 mmHg 83%
    13:00 +12°C° 0 mm 8 mps 740 mmHg 83%
    14:00 +12°C° 0 mm 8 mps 740 mmHg 84%
    15:00 +12°C° 0.1 mm 7 mps 740 mmHg 84%
    16:00 +12°C° 0.1 mm 7 mps 739 mmHg 85%
    17:00 +12°C° 0.1 mm 7 mps 739 mmHg 85%
    18:00 +12°C° 0.2 mm 7 mps 739 mmHg 86%
    19:00 +14°C° 0.2 mm 7 mps 739 mmHg 87%
    20:00 +14°C° 0.2 mm 7 mps 738 mmHg 87%
    21:00 +14°C° 0.2 mm 6 mps 738 mmHg 88%
    22:00 +13°C° 0.2 mm 6 mps 738 mmHg 88%
    23:00 +13°C° 0.2 mm 5 mps 738 mmHg 89%

    29 September, Saturday

    Time Temperature Precipitation Wind Pressure Humidity
    00:00 +12°C° 0.2 mm 5 mps 739 mmHg 89%
    01:00 +12°C° 0.2 mm 5 mps 739 mmHg 90%
    02:00 +11°C° 0.2 mm 4 mps 740 mmHg 90%
    03:00 +10°C° 0.2 mm 4 mps 740 mmHg 91%
    04:00 +9°C° 0.2 mm 3 mps 741 mmHg 91%
    05:00 +9°C° 0.2 mm 3 mps 741 mmHg 91%
    06:00 +8°C° 0.1 mm 3 mps 742 mmHg 89%
    07:00 +7°C° 0.1 mm 4 mps 742 mmHg 86%
    08:00 +6°C° 0.1 mm 4 mps 743 mmHg 84%
    09:00 +7°C° 0 mm 4 mps 743 mmHg 79%
    10:00 +8°C° 0 mm 4 mps 744 mmHg 75%
    11:00 +8°C° 0 mm 4 mps 745 mmHg 70%
    12:00 +10°C° 0 mm 4 mps 745 mmHg 66%
    13:00 +10°C° 0 mm 4 mps 745 mmHg 63%
    14:00 +10°C° 0 mm 4 mps 746 mmHg 59%
    15:00 +10°C° 0 mm 4 mps 746 mmHg 61%
    16:00 +9°C° 0 mm 3 mps 746 mmHg 63%
    17:00 +8°C° 0 mm 3 mps 747 mmHg 65%
    18:00 +7°C° 0 mm 3 mps 748 mmHg 65%
    19:00 +7°C° 0 mm 3 mps 748 mmHg 65%
    20:00 +5°C° 0 mm 3 mps 749 mmHg 66%
    21:00 +4°C° 0 mm 3 mps 749 mmHg 68%
    22:00 +3°C° 0 mm 3 mps 750 mmHg 70%
    23:00 +4°C° 0 mm 2 mps 750 mmHg 72%
    Show more